User: anonymous   Login
Location: Pedholt
(56.0260°N, 10.2097°E)
Time: 00:00:46
(UTC+00:00)
Language:

Courier 1B - Orbit

View from above orbital plane
View from above orbital plane
View from above satellite
View from above satellite

Ground track
Ground track

The orbit data is extracted from the following two-line orbital elements,

1 00058U 60013A   21209.32019291  .00000084  00000-0 -64099-5 0  9990
2 00058  28.3257 195.5563 0165037 189.4514 170.2902 13.46327840993358
Epoch (UTC): 28 July 2021 07:41:04
Eccentricity: 0.0165037
inclination: 28.3257°
perigee height: 962 km
apogee height: 1209 km
right ascension of ascending node: 195.5563°
argument of perigee: 189.4514°
revolutions per day: 13.46327840
mean anomaly at epoch: 170.2902°
orbit number at epoch: 99335

The dashed part of the orbit path shows where the satellite is in the earth's shadow,  

DLR